CW3560 Weather Reports


time (UTC)temp
F
wind
direction
speed
knots
gust
knots
rain 1hr
in
rain 24hr
in
rain mn
in
humidity
%
barometer
mb
20260507040048 46 225 0.0 7.8 0.00 0.00 0.00 39 1005.9
20260507034547 46 198 2.6 7.8 0.00 0.00 0.00 39 1006.1
20260507033059 47 198 0.9 5.2 0.00 0.00 0.00 39 1005.9
20260507031556 47 199 0.9 6.1 0.00 0.00 0.00 39 1005.9
20260507024602 47 209 1.7 9.6 0.00 0.00 0.00 39 1005.9
20260507023041 48 271 2.6 11.3 0.00 0.00 0.00 39 1005.7
20260507021547 48 236 3.5 11.3 0.00 0.00 0.00 39 1005.7
20260507020051 49 233 4.3 10.4 0.00 0.00 0.00 39 1005.4
20260507014542 50 201 1.7 9.6 0.00 0.00 0.00 39 1005.1
20260507013038 51 255 0.9 9.6 0.00 0.00 0.00 40 1005.0
20260507011534 52 237 0.9 8.7 0.00 0.00 0.00 40 1004.7
20260507010035 53 261 0.9 3.5 0.00 0.00 0.00 40 1004.7
20260507004528 54 259 0.9 4.3 0.00 0.00 0.00 40 1004.4
20260507003028 54 306 0.0 7.0 0.00 0.00 0.00 40 1004.0
20260507001533 56 47 0.9 5.2 0.00 0.00 0.00 40 1003.8
20260507000027 58 350 2.6 7.0 0.00 0.00 0.00 40 1003.5
20260506234526 59 162 0.0 1.7 0.00 0.00 0.00 40 1003.0
20260506233026 59 164 0.0 1.7 0.00 0.00 0.00 40 1003.0
20260506231525 59 163 0.0 0.9 0.00 0.00 0.00 40 1003.0
20260506230024 59 162 0.0 5.2 0.00 0.00 0.00 40 1002.9
20260506224526 59 22 0.9 5.2 0.00 0.00 0.00 40 1002.8
20260506223024 59 190 0.9 5.2 0.00 0.00 0.00 40 1003.0
20260506221523 59 46 0.9 4.3 0.00 0.00 0.00 40 1002.8
20260506220021 59 74 0.9 5.2 0.00 0.00 0.00 40 1002.9
20260506214521 59 61 0.9 5.2 0.00 0.00 0.00 40 1002.9
20260506213020 60 55 0.0 7.8 0.00 0.00 0.00 40 1002.9
20260506211522 60 35 0.0 4.3 0.00 0.00 0.00 40 1003.2
20260506210018 60 46 0.9 4.3 0.00 0.00 0.00 40 1003.2
20260506204517 60 9 0.9 2.6 0.00 0.00 0.00 40 1003.2
20260506203015 60 71 0.0 2.6 0.00 0.00 0.00 40 1003.3
20260506201513 60 104 0.0 2.6 0.00 0.00 0.00 40 1003.5
20260506200012 60 151 0.9 3.5 0.00 0.00 0.00 40 1003.6
20260506194511 60 82 0.9 4.3 0.00 0.00 0.00 40 1003.8
20260506193009 60 73 0.0 3.5 0.00 0.00 0.00 40 1004.1
20260506191508 60 157 0.0 4.3 0.00 0.00 0.00 40 1004.1
20260506190007 60 69 0.9 4.3 0.00 0.00 0.00 40 1004.2
20260506184507 60 67 0.9 7.0 0.00 0.00 0.00 40 1004.5
20260506183006 60 10 0.0 1.7 0.00 0.00 0.00 40 1004.7
20260506181503 60 157 0.0 1.7 0.00 0.00 0.00 40 1005.0
20260506180002 60 82 0.0 2.6 0.00 0.00 0.00 40 1005.1
20260506174502 61 70 0.0 3.5 0.00 0.00 0.00 39 1005.3
20260506173002 61 52 0.0 2.6 0.00 0.00 0.00 39 1005.3
20260506171617 62 118 0.0 3.5 0.00 0.00 0.00 39 1005.3
20260506170100 63 70 0.0 2.6 0.00 0.00 0.00 39 1005.2
20260506164607 64 95 0.9 5.2 0.00 0.00 0.00 38 1005.3
20260506163106 65 91 0.0 7.0 0.00 0.00 0.00 38 1005.2
20260506161631 65 100 0.9 4.3 0.00 0.00 0.00 37 1005.4
20260506160101 65 74 1.7 4.3 0.00 0.00 0.00 38 1005.7
20260506154554 64 67 1.7 6.1 0.00 0.00 0.00 38 1006.1
20260506153056 64 351 0.0 3.5 0.00 0.00 0.00 38 1006.6
20260506151550 64 74 0.9 3.5 0.00 0.00 0.00 37 1006.5
20260506150049 65 73 0.9 6.1 0.00 0.00 0.00 37 1006.6
20260506144548 64 199 0.0 1.7 0.00 0.00 0.00 38 1006.3
20260506143047 64 106 0.9 6.1 0.00 0.00 0.00 38 1006.4
20260506141544 63 252 0.0 2.6 0.00 0.00 0.00 38 1006.5
20260506140042 62 59 1.7 6.1 0.00 0.00 0.00 38 1006.4
20260506134538 61 86 0.0 3.5 0.00 0.00 0.00 38 1006.4
20260506133035 61 146 0.0 2.6 0.00 0.00 0.00 38 1006.7
20260506131545 60 88 0.0 2.6 0.00 0.00 0.00 38 1007.1
20260506130044 60 83 0.0 3.5 0.00 0.00 0.00 38 1007.0
20260506124533 60 86 0.0 4.3 0.00 0.00 0.00 38 1006.9
20260506123032 59 98 0.0 3.5 0.00 0.00 0.00 38 1006.8
20260506121533 58 94 0.0 1.7 0.00 0.00 0.00 39 1007.0
20260506120032 56 94 0.0 0.0 0.00 0.00 0.00 39 1007.2
20260506114534 55 94 0.0 0.9 0.00 0.00 0.00 40 1007.3
20260506113028 53 94 0.0 0.0 0.00 0.00 0.00 40 1007.2
20260506111525 52 94 0.0 0.0 0.00 0.00 0.00 40 1007.3
20260506110025 52 94 0.0 0.0 0.00 0.00 0.00 40 1007.1
20260506104520 51 94 0.0 0.0 0.00 0.00 0.00 40 1007.3
20260506103021 51 94 0.0 0.0 0.00 0.00 0.00 40 1007.6
20260506101530 51 94 0.0 0.0 0.00 0.00 0.00 40 1007.7
20260506100015 51 94 0.0 0.0 0.00 0.00 0.00 40 1007.3
20260506094521 52 94 0.0 0.0 0.00 0.00 0.00 40 1007.2
20260506093014 52 94 0.0 0.0 0.00 0.00 0.00 40 1007.2
20260506091513 52 94 0.0 0.0 0.00 0.00 0.00 39 1007.1
20260506090007 53 94 0.0 0.0 0.00 0.00 0.00 39 1007.2
20260506084507 54 94 0.0 0.0 0.00 0.00 0.00 39 1007.2
20260506083005 54 94 0.0 0.0 0.00 0.00 0.00 39 1007.4
20260506081503 55 94 0.0 0.0 0.00 0.00 0.00 39 1007.3
20260506073058 57 94 0.0 0.0 0.00 0.00 0.00 39 1007.2
20260506071559 57 94 0.0 0.0 0.00 0.00 0.00 39 1007.1
20260506061551 59 94 0.0 0.0 0.00 0.00 0.00 39 1007.0
20260506044640 60 175 0.0 2.6 0.00 0.00 0.00 38 1007.2
20260506043043 58 82 0.0 0.0 0.00 0.00 0.00 39 1007.1
20260506041553 59 82 0.0 0.0 0.00 0.00 0.00 39 1006.8